User: anonymous
Location: Owatonna
(44.0840°N, 93.2260°W)
Time: 00:46:24
(UTC-05:00)
Language:

Cosmos 839 Rocket - Orbit

View from above orbital plane
View from above orbital plane
View from above satellite
View from above satellite

Ground track
Ground track

The orbit data is extracted from the following two-line orbital elements,

1 09013U 76067B   14202.12871009 -.00000009  00000-0  15328-3 0  5242
2 09013 065.8651 268.3860 0707786 129.6266 257.7049 12.35303635715464
Epoch (UTC): 21 July 2014 03:05:20
Eccentricity: 0.0707786
inclination: 65.8651°
perigee height: 967 km
apogee height: 2086 km
right ascension of ascending node: 268.3860°
argument of perigee: 129.6266°
revolutions per day: 12.35303635
mean anomaly at epoch: 257.7049°
orbit number at epoch: 71546

The dashed part of the orbit path shows where the satellite is in the earth's shadow,  

DLR